Regional Weather Roundup
Issued by NWS

Home | Current Version | Previous Version | Graphics & Text | Print | Product List | Glossary On
Versions: 1 2 3 4 5 6 7 8 9 10 11 12 13 14 15 16 17 18 19 20 21 22 23 24 25 26 27 28 29 30 31 32 33 34 35 36 37 38 39 40 41 42 43 44 45 46 47 48 49 50
000
ASUS43 KLOT 052012
RWRIL

ILLINOIS REGIONAL WEATHER ROUNDUP
NATIONAL WEATHER SERVICE CHICAGO/ROMEOVILLE IL
300 PM CDT SUN JUL 05 2015

NOTE: "FAIR" INDICATES FEW OR NO CLOUDS BELOW 12,000 FEET WITH NO
SIGNIFICANT WEATHER AND/OR OBSTRUCTIONS TO VISIBILITY.

* THESE STATIONS ARE NOT UNDER NWS QUALITY CONTROL. THEY ALSO MAY NOT
  REPORT WEATHER SUCH AS PRECIPITATION OR FOG.

ILZ001-002-007-009-015-016-024-052100-
NORTHWEST ILLINOIS

CITY           SKY/WX    TMP DP  RH WIND       PRES   REMARKS
MOLINE         SUNNY     82  65  56 S9        30.01F HX  84
STERLING*      PTSUNNY   82  66  57 S5        30.03F HX  85
SAVANNA*       MOSUNNY   83  63  50 S7        30.01F HX  84
$$

ILZ003-004-008-010-011-017-018-052100-
NORTH CENTRAL ILLINOIS

CITY           SKY/WX    TMP DP  RH WIND       PRES   REMARKS
ROCKFORD       MOSUNNY   82  63  52 S9        30.05F HX  83
FREEPORT*      PTSUNNY   80  65  60 S8        30.05F HX  81
ROCHELLE*      MOSUNNY   80  64  57 SW8       30.05F HX  82
DE KALB*       SUNNY     78  63  59 S12       30.06F HX  80
PERU*          MOSUNNY   82  59  46 S7        30.05F HX  82
$$

ILZ005-006-012>014-019>023-052100-
NORTHEAST ILLINOIS

CITY           SKY/WX    TMP DP  RH WIND       PRES   REMARKS
CHICAGO-OHARE  MOSUNNY   82  60  47 S7        30.04F HX  82
CHICAGO-MIDWAY MOSUNNY   84  59  42 VRB6      30.04F HX  84
AURORA         MOSUNNY   82  62  50 S8        30.05F HX  83
LANSING*       MOSUNNY   82  57  42 S8        30.06F HX  82
JOLIET*        MOSUNNY   82  64  53 SE6       30.06S HX  83
WAUKEGAN       SUNNY     77  62  59 E9        30.05F
DUPAGE AIRPORT SUNNY     82  61  48 S10       30.04F HX  83
KANKAKEE*      SUNNY     83  64  51 S6        30.07S HX  84
WHEELING       SUNNY     83  59  44 VRB5      30.05F HX  83
MORRIS*        SUNNY     82  61  49 SE7       30.04F HX  82
ROMEOVILLE*    SUNNY     82  59  45 SE6       30.06S HX  82
NORTHERLY ISL    N/A     73  63  70 E9          N/A
$$

LMZ740>746-052100-
SOUTHERN LAKE MICHIGAN

STATION/POSITION SKY/WX   TEMP    WIND        PRES    VSBY  WAVE
                          AIR SEA DIR/SP/G                  HT/PER
                          (F)     (DEG/KT/KT) (MB)    (MI)  (FT/S)
HARRISON CRIB              71      90/ 13/ 14   N/A
BURNHAM HARBOR             73      90/  8/ 11   N/A
CALUMET HARBOR             75      60/  9/ 11   N/A
BURNS HARBOR               73      60/  9/ 10 1019.0F
MICHIGAN CITY              70      30/  7/  7   N/A
MICHIGAN CITY 6N           70 68   40/  4/  4   N/A           1
ST. JOSEPH                 71 66                N/A           0
$$

ILZ025>027-034>036-040-047-049-050-058-095>099-052100-
WEST-CENTRAL ILLINOIS

CITY           SKY/WX    TMP DP  RH WIND       PRES   REMARKS
QUINCY         MOSUNNY   85  68  56 S9        30.02S HX  88
GALESBURG*     SUNNY     82  66  58 SE8       30.03F HX  83
MACOMB*        PTSUNNY   82  69  64 SE7       30.04F HX  85
JACKSONVILLE*  PTSUNNY   83  68  59 S6        30.04S HX  86
PITTSFIELD*    MOSUNNY   83  69  62 SE8       30.04S HX  87
$$

ILZ028>032-037-038-041>044-048-051>054-059>061-052100-
CENTRAL ILLINOIS

CITY           SKY/WX    TMP DP  RH WIND       PRES   REMARKS
PONTIAC        SUNNY     81  65  57 S8        30.07S HX  83
BLOOMINGTON    MOSUNNY   81  65  58 SE6       30.08F HX  83
DECATUR        MOSUNNY   82  64  54 S8        30.05F HX  83
PEORIA         MOSUNNY   83  63  50 S8        30.04F HX  84
LACON*         MOSUNNY   82  63  51 S7        30.03F HX  83
SPRINGFIELD    SUNNY     84  65  52 SW6       30.04F HX  86
TAYLORVILLE    SUNNY     81  64  57 S6        30.05F HX  82
$$

ILZ033-039-045-046-055>057-062-063-052100-
EAST-CENTRAL ILLINOIS

CITY           SKY/WX    TMP DP  RH WIND       PRES   REMARKS
CHAMPAIGN      MOSUNNY   82  65  56 SW6       30.07F HX  84
DANVILLE*      MOSUNNY   79  65  63 SW3       30.05S HAZE    HX  81
RANTOUL*       MOSUNNY   83  65  53 SE5       30.07F HX  85
MATTOON        MOSUNNY   81  66  60 S5        30.06F HX  83
PARIS*         PTSUNNY   81  66  59 CALM      30.08S HX  83
$$

ILZ079-100>102-052100-
SOUTHWEST ILLINOIS

CITY           SKY/WX    TMP DP  RH WIND       PRES   REMARKS
BELLEVILLE     MOSUNNY   85  68  56 SE7       30.04S HX  89
CAHOKIA*       MOSUNNY   87  67  51 S7        30.03F HX  90
SPARTA*        SUNNY     84  66  55 SE3       30.06S HX  86
$$

ILZ064>066-069>071-074>076-080>082-084>086-088>090-092>094-052100-
SOUTH-CENTRAL ILLINOIS

CITY           SKY/WX    TMP DP  RH WIND       PRES   REMARKS
CARBONDALE     MOSUNNY   84  65  52 CALM      30.06F HX  86
CAIRO*         SUNNY     81  69  66 SW3       30.06F HX  85
EFFINGHAM*     SUNNY     83  60  45 S5        30.08S HX  83
MARION         MOSUNNY   84  66  54 SW8       30.07F HX  86
MT. VERNON     SUNNY     86  64  48 S8        30.07S HX  87
CENTRALIA*     SUNNY     83  62  48 SE3       30.07S HX  84
SALEM*         SUNNY     83  64  51 CALM      30.07S HX  85
$$

ILZ067-068-072-073-078-083-087-091-052100-
SOUTHEAST ILLINOIS

CITY           SKY/WX    TMP DP  RH WIND       PRES   REMARKS
LAWRENCEVILLE  MOSUNNY   83  69  62 S7        30.06S HX  86
FLORA*         MOSUNNY   82  64  53 S3        30.07S HX  83
FAIRFIELD*     PTSUNNY   83  67  59 SW5       30.05F HX  85
HARRISBURG*    MOSUNNY   83  66  56 SW3       30.07F HX  85
ROBINSON*      PTSUNNY   84  66  54 S3        30.07S HX  86
CARMI*         MOSUNNY   85  63  47 SW6       30.05S HX  86
$$

ABBREVIATIONS USED IN REMARKS
   TC - TEMPERATURE IN CELSIUS
  WCI - WIND CHILL INDEX
   HX - HEAT INDEX
  VSB - VISIBILITY
$$



USA.gov is the U.S. government's official web portal to all federal, state and local government web resources and services.